Location: Beccas
(43.4309°N, 0.1528°E)
Time: 06:40:16
(UTC+00:00)

Cosmos 1703 - Pass Details

Date: 28 May 2022
Orbit: 518 x 535 km, 82.5° (Epoch: 06 July)

Event Time Altitude Azimuth Distance (km) Brightness Sun altitude
Exits shadow 01:14:38 13° 111° (ESE) 1,594 5.6 -22.7°
Maximum altitude 01:16:05 16° 86° (E) 1,465 5.7 -22.6°
Drops below altitude 10° 01:18:28 10° 49° (NE) 1,793 6.8 -22.5°
Sets 01:21:17 0° 27° (NNE) 2,687 8.3 -22.3°
